Location: Mentone
(34.5413°N, 85.5351°W)
Time: 18:45:18
(UTC-05:00)

Uosat F - Visible Passes

Search period start: 26 March 2015 00:00
Search period end: 05 April 2015 00:00
Orbit: 751 x 761 km, 98.7° (Epoch: 26 March)

Date Brightness Start Highest point End Pass type
(mag) Time Alt. Az. Time Alt. Az. Time Alt. Az.
26 Mar 11.2 05:26:49 10° NNE 05:31:52 76° ESE 05:36:51 10° S visible
27 Mar 13.0 04:48:09 10° NE 04:52:26 29° E 04:56:47 10° SSE visible
28 Mar 14.1 04:11:41 10° ENE 04:12:42 11° E 04:14:05 10° ESE visible
28 Mar 11.0 05:47:04 10° N 05:52:04 67° WNW 05:57:01 10° SSW visible
29 Mar 12.1 05:07:57 10° NNE 05:12:47 47° E 05:17:35 10° S visible
30 Mar 13.7 04:29:53 10° NE 04:33:12 18° E 04:36:42 10° SE visible
31 Mar 11.2 05:28:00 10° NNE 05:33:02 77° ESE 05:38:02 10° S visible
01 Apr 13.0 04:49:18 10° NE 04:53:37 29° E 04:57:59 10° SSE visible
02 Apr 14.1 04:12:46 10° ENE 04:13:53 11° E 04:15:22 10° ESE visible
02 Apr 11.1 05:48:15 10° N 05:53:14 67° WNW 05:58:11 10° SSW visible
03 Apr 12.1 05:09:07 10° NNE 05:13:57 47° E 05:18:46 10° S visible
04 Apr 13.7 04:31:02 10° NE 04:34:22 18° E 04:37:54 10° SE visible
